Bangkok (Suvarnabhumi), Thailand

12:19 PM +07 on November 18, 2017 (GMT +0700)
Bangkok (Suvarnabhumi)

Weather History for VTBS - December, 2013

Change the Weather History Date:

Tuesday, December 10, 2013

  Actual Average (VTBU) Record (VTBU)
Temperature  
Mean Temperature 80 °F -  
Max Temperature 90 °F 89 °F 95 °F (2006)
Min Temperature 71 °F 69 °F 68 °F (1999)
Cooling Degree Days 16    
Growing Degree Days 30 (Base 50)    
Moisture  
Dew Point 65 °F    
Average Humidity 60    
Maximum Humidity 78    
Minimum Humidity 35    
Precipitation  
Precipitation 0.00 in 0.01 in - ()
Sea Level Pressure  
Sea Level Pressure 29.81 in    
Wind  
Wind Speed 5 mph ()    
Max Wind Speed 10 mph    
Max Gust Speed -    
Visibility 4.5 miles    
Events      
Averages and records for this station are not official NWS values.
T = Trace of Precipitation, MM = Missing Value Source: Averaged Metar Reports

Daily Weather History Graph

Daily Weather History Graph

Search for Another Location

Airport or City:

Trip Planner

Search our weather history database for the weather conditions in past years. The results will help you decide how hot, cold, wet, or windy it might be!

Date:

Astronomy

Dec. 10, 2013 Rise Set
Actual Time 6:28 AM +07 5:49 PM +07
Civil Twilight 6:05 AM +07 6:12 PM +07
Nautical Twilight 5:38 AM +07 6:39 PM +07
Astronomical Twilight 5:12 AM +07 7:05 PM +07
Moon 12:38 PM +07 (12/10) 12:13 AM +07 (12/10)
Length of Visible Light 12h 07m
Length of Day
11h 21m
First Quarter, 56% of the Moon is Illuminated
Dec 10
First Quarter
Dec 17
Full
Dec 25
Last Quarter
Jan 1
New
Jan 8
First Quarter

Hourly Weather History & Observations

Time (+07) Temp. Heat Index Dew Point Humidity Pressure Visibility Wind Dir Wind Speed Gust Speed Precip Events Conditions
12:00 AM 78.8 °F - 64.4 °F 61% 29.86 in 5.0 mi NW 4.6 mph - N/A   Unknown
12:30 AM 78.8 °F - 64.4 °F 61% 29.86 in 4.3 mi NNW 5.8 mph - N/A   Unknown
1:00 AM 77 °F - 69 °F 69% 29.83 in 4 mi Calm Calm - -   Mist
1:00 AM 77.0 °F - 66.2 °F 69% 29.86 in 4.3 mi East 5.8 mph - N/A   Unknown
1:30 AM 75.2 °F - 66.2 °F 73% 29.83 in 3.7 mi NE 3.5 mph - N/A   Unknown
2:00 AM 75.2 °F - 66.2 °F 73% 29.83 in 3.7 mi NNE 3.5 mph - N/A   Unknown
2:30 AM 75.2 °F - 66.2 °F 73% 29.80 in 3.7 mi North 3.5 mph - N/A   Unknown
3:00 AM 73.4 °F - 64.4 °F 73% 29.80 in 3.7 mi Variable 2.3 mph - N/A   Unknown
3:30 AM 73.4 °F - 64.4 °F 73% 29.80 in 3.7 mi NNE 3.5 mph - N/A   Unknown
4:00 AM 74 °F - 67 °F 74% 29.78 in 4 mi East 2.3 mph - -   Mist
4:00 AM 73.4 °F - 66.2 °F 78% 29.80 in 3.1 mi NE 3.5 mph - N/A   Mist
4:30 AM 73.4 °F - 66.2 °F 78% 29.80 in 3.1 mi Variable 2.3 mph - N/A   Mist
5:00 AM 73.4 °F - 66.2 °F 78% 29.80 in 3.1 mi NE 3.5 mph - N/A   Mist
5:30 AM 73.4 °F - 64.4 °F 73% 29.80 in 3.1 mi North 3.5 mph - N/A   Mist
6:00 AM 71.6 °F - 64.4 °F 78% 29.83 in 3.1 mi NE 3.5 mph - N/A   Mist
6:30 AM 71.6 °F - 64.4 °F 78% 29.83 in 2.5 mi ENE 3.5 mph - N/A   Mist
7:00 AM 73 °F - 67 °F 76% 29.83 in 4 mi ENE 3.5 mph - -   Mist
7:00 AM 73.4 °F - 66.2 °F 78% 29.83 in 3.1 mi ENE 5.8 mph - N/A   Mist
7:30 AM 75.2 °F - 64.4 °F 69% 29.86 in 3.7 mi ENE 5.8 mph - N/A   Unknown
8:00 AM 75.2 °F - 64.4 °F 69% 29.86 in 4.3 mi East 8.1 mph - N/A   Unknown
8:30 AM 77.0 °F - 64.4 °F 65% 29.86 in 5.0 mi ENE 9.2 mph - N/A   Unknown
9:00 AM 78.8 °F - 64.4 °F 61% 29.89 in 5.0 mi East 10.4 mph - N/A   Unknown
9:30 AM 78.8 °F - 64.4 °F 61% 29.89 in 5.0 mi ENE 9.2 mph - N/A   Unknown
10:00 AM 82 °F - 65 °F 47% 29.86 in 5 mi East 8.1 mph - -   Haze
10:00 AM 80.6 °F 82.3 °F 64.4 °F 58% 29.89 in 5.0 mi ENE 9.2 mph - N/A   Unknown
10:30 AM 82.4 °F 83.9 °F 64.4 °F 54% 29.86 in 5.0 mi ENE 10.4 mph - N/A   Unknown
11:00 AM 82.4 °F 83.4 °F 62.6 °F 51% 29.86 in 5.0 mi ENE 9.2 mph - N/A   Unknown
11:30 AM 84.2 °F 85.0 °F 62.6 °F 48% 29.86 in 5.0 mi ENE 9.2 mph - N/A   Unknown
12:00 PM 84.2 °F 85.0 °F 62.6 °F 48% 29.83 in 5.6 mi ENE 9.2 mph - N/A   Unknown
12:30 PM 84.2 °F 85.0 °F 62.6 °F 48% 29.83 in 5.6 mi East 9.2 mph - N/A   Unknown
1:00 PM 89 °F - 65 °F 35% 29.77 in 5 mi NE 8.1 mph - -   Haze
1:00 PM 86.0 °F 87.3 °F 64.4 °F 48% 29.80 in 5.6 mi East 10.4 mph - N/A   Unknown
1:30 PM 86.0 °F 87.3 °F 64.4 °F 48% 29.77 in 5.6 mi ENE 9.2 mph - N/A   Unknown
2:00 PM 86.0 °F 86.6 °F 62.6 °F 45% 29.77 in 5.6 mi ENE 8.1 mph - N/A   Unknown
2:30 PM 86.0 °F 86.1 °F 60.8 °F 43% 29.74 in 5.6 mi East 9.2 mph - N/A   Unknown
3:00 PM 87.8 °F 88.5 °F 62.6 °F 43% 29.74 in 5.6 mi ENE 8.1 mph - N/A   Unknown
3:30 PM 87.8 °F 88.5 °F 62.6 °F 43% 29.74 in 5.6 mi ENE 8.1 mph - N/A   Unknown
4:00 PM 86.0 °F 86.6 °F 62.6 °F 45% 29.74 in 5.6 mi East 8.1 mph - N/A   Unknown
4:30 PM 86.0 °F 86.6 °F 62.6 °F 45% 29.74 in 5.6 mi ENE 6.9 mph - N/A   Unknown
5:00 PM 86.0 °F 86.6 °F 62.6 °F 45% 29.74 in 5.6 mi ENE 6.9 mph - N/A   Unknown
5:30 PM 84.2 °F 85.6 °F 64.4 °F 51% 29.74 in 5.6 mi ENE 5.8 mph - N/A   Unknown
6:00 PM 82.4 °F 83.9 °F 64.4 °F 54% 29.77 in 5.0 mi ENE 5.8 mph - N/A   Unknown
6:30 PM 82.4 °F 83.9 °F 64.4 °F 54% 29.77 in 5.0 mi ENE 4.6 mph - N/A   Unknown
7:00 PM 83 °F - 68 °F 51% 29.77 in 5 mi Calm Calm - -   Haze
7:00 PM 80.6 °F 82.7 °F 66.2 °F 61% 29.80 in 5.0 mi NE 3.5 mph - N/A   Unknown
7:30 PM 82.4 °F 83.9 °F 64.4 °F 54% 29.80 in 5.0 mi North 4.6 mph - N/A   Unknown
8:00 PM 80.6 °F 82.3 °F 64.4 °F 58% 29.80 in 5.0 mi North 4.6 mph - N/A   Unknown
8:30 PM 80.6 °F 82.3 °F 64.4 °F 58% 29.83 in 5.0 mi NW 6.9 mph - N/A   Unknown
9:00 PM 80.6 °F 82.3 °F 64.4 °F 58% 29.83 in 4.3 mi NNW 6.9 mph - N/A   Unknown
9:30 PM 78.8 °F - 64.4 °F 61% 29.83 in 4.3 mi NNW 5.8 mph - N/A   Unknown
10:00 PM 78 °F - 68 °F 65% 29.83 in 4 mi Calm Calm - -   Mist
10:00 PM 80.6 °F 82.3 °F 64.4 °F 58% 29.86 in 4.3 mi NW 5.8 mph - N/A   Unknown
10:30 PM 80.6 °F 82.3 °F 64.4 °F 58% 29.86 in 4.3 mi NNW 4.6 mph - N/A   Unknown
11:00 PM 78.8 °F - 64.4 °F 61% 29.83 in 4.3 mi NNW 4.6 mph - N/A   Unknown
11:30 PM 78.8 °F - 64.4 °F 61% 29.83 in 4.3 mi NNW 4.6 mph - N/A   Unknown